Location: Coupvray
(48.8929°N, 2.7967°E)
Time: 21:19:36
(UTC+00:00)

Cosmos 724 - Pass Details

Date: 27 October 2020
Orbit: 851 x 943 km, 65.6° (Epoch: 01 December)

Event Time Altitude Azimuth Distance (km) Brightness Sun altitude
Exits shadow 01:37:22 14° 23° (NNE) 2,348 6.9 -45.8°
Drops below altitude 10° 01:38:14 10° 28° (NNE) 2,606 7.3 -45.7°
Sets 01:41:09 0° 39° (NE) 3,566 8.2 -45.3°
